Tracking 27079 objects as of 23-Mar-2023
HD Live streaming from Space Station
objects crossing your sky now

BREEZE-M R/B

Track BREEZE-M R/B now!


NORAD ID: 28360
Int'l Code: 2004-022C
Perigee: 4,260.0 km
Apogee: 35,956.3 km
Inclination: 24.0 °
Period: 714.7 minutes
Semi major axis: 26479 km
RCS: 6.6176 m2 (large)
Launch date: June 16, 2004
Source: Commonwealth of Independent States (former USSR) (CIS)
Launch site: TYURATAM MISSILE AND SPACE COMPLEX (TTMTR)

Note: This is a ROCKET BODY
Your satellite tracking list
Your tracking list is empty




NASA's NSSDC Master Catalog

Two Line Element Set (TLE):
1 28360U 04022C   23081.33101937 -.00000090  00000-0  00000-0 0  9998
2 28360  24.0461 276.3295 5985150  15.2194 356.9754  2.01486997137519
Source of the keplerian elements: AFSPC